{"data":{"norad_id":61939,"intl_designator":"2024-209A","name":"STARLINK-11407 [DTC]","alt_names":[],"object_type":"PAYLOAD","status":"ACTIVE","operator":null,"country":"US","launch_date":"2024-11-14","launch_site_code":"AFWTR","launch_vehicle":null,"mission":null,"orbit_class":"UNKNOWN","rcs_meters":null,"size_class":null,"mass_kg":null,"dimensions":null,"purposes":["comms"],"wikipedia_slug":null,"has_3d_model":false,"image_url":null,"decayed_at":null,"tle_current":{"epoch":"2026-09-21T20:55:37.413984Z","epoch_age_seconds":67106,"freshness":"FRESH","line1":"1 61939U 24209A   26264.87196081  .00144195  00000+0  11745-2 0  9998","line2":"2 61939  53.1567 123.9319 0000920  90.7330 269.3793 15.69709685107551","mean_motion":15.69709685,"eccentricity":9.2e-5,"inclination_deg":53.1567,"raan_deg":123.9319,"arg_perigee_deg":90.733,"mean_anomaly_deg":269.3793,"bstar":0.0011745,"rev_number":10755,"period_min":91.736708625837,"perigee_km":359.10776828139,"apogee_km":360.34753537732,"semimajor_km":6737.8646518294,"source":"CELESTRAK","updated_at":"2026-09-22T09:00:49.453316Z"}}}